LGL700D LEMH-LEIB

Flight info

Callsign LGL700D
Flight time 0h 40m
Altitude 23000
Route NEVIC
Aircraft B738/M-SDE2E3FGHIRWXY/LB1

Departure

Time 2026-05-07 06:30
Airport Menorca Airport (LEMH)

Arrival

Time 2026-05-07 07:10
Airport Ibiza Airport (LEIB)
Time Latitude Longitude Altitude Speed Heading
2026-05-07 05:29 39.86425 4.22391 285 ft 0 kts 99°
2026-05-07 06:16 39.86428 4.22367 290 ft 4 kts 102°
2026-05-07 06:17 39.86436 4.22334 292 ft 4 kts 120°
2026-05-07 06:17 39.86451 4.22314 289 ft 3 kts 182°
2026-05-07 06:17 39.86455 4.22314 292 ft 1 kts 188°
2026-05-07 06:22 39.86445 4.22312 290 ft 2 kts 189°
2026-05-07 06:22 39.86415 4.22306 291 ft 7 kts 189°
2026-05-07 06:23 39.86346 4.22291 287 ft 14 kts 189°
2026-05-07 06:23 39.86238 4.22269 287 ft 16 kts 189°
2026-05-07 06:23 39.86185 4.22248 287 ft 2 kts 224°
2026-05-07 06:23 39.86184 4.22229 290 ft 3 kts 269°
2026-05-07 06:24 39.86188 4.22176 290 ft 10 kts 278°
2026-05-07 06:24 39.86176 4.22090 297 ft 10 kts 210°
2026-05-07 06:24 39.86106 4.22071 294 ft 11 kts 189°
2026-05-07 06:24 39.86015 4.22053 295 ft 17 kts 189°
2026-05-07 06:25 39.85873 4.22024 295 ft 25 kts 189°
2026-05-07 06:25 39.85668 4.21982 289 ft 33 kts 189°
2026-05-07 06:25 39.85428 4.21933 282 ft 35 kts 189°
2026-05-07 06:25 39.85214 4.21889 280 ft 22 kts 188°
2026-05-07 06:26 39.85123 4.21807 282 ft 17 kts 289°
2026-05-07 06:26 39.85130 4.21776 282 ft 0 kts 284°
2026-05-07 06:28 39.85130 4.21775 282 ft 1 kts 284°
2026-05-07 06:28 39.85133 4.21758 283 ft 6 kts 284°
2026-05-07 06:28 39.85151 4.21652 285 ft 5 kts 290°
2026-05-07 06:29 39.85180 4.21640 285 ft 5 kts 18°
2026-05-07 06:29 39.85207 4.21648 285 ft 8 kts 10°
2026-05-07 06:29 39.85703 4.21750 294 ft 102 kts
2026-05-07 06:29 39.86265 4.21866 325 ft 135 kts
2026-05-07 06:30 39.87224 4.22043 895 ft 144 kts 11°
2026-05-07 06:30 39.88251 4.22260 1565 ft 150 kts 14°
2026-05-07 06:30 39.89313 4.22492 2175 ft 165 kts 13°
2026-05-07 06:30 39.90564 4.22762 2492 ft 199 kts 12°
2026-05-07 06:31 39.92026 4.23070 2692 ft 225 kts 12°
2026-05-07 06:31 39.93632 4.23404 2970 ft 246 kts 11°
2026-05-07 06:31 39.95370 4.23766 3595 ft 258 kts 12°
2026-05-07 06:31 39.97157 4.24125 4412 ft 263 kts 11°
2026-05-07 06:32 39.99000 4.24509 5130 ft 271 kts 11°
2026-05-07 06:32 40.00888 4.24922 5933 ft 278 kts 11°
2026-05-07 06:32 40.02818 4.25345 6723 ft 284 kts 11°
2026-05-07 06:32 40.04795 4.25323 7578 ft 287 kts 343°
2026-05-07 06:33 40.06452 4.23966 8569 ft 281 kts 308°
2026-05-07 06:33 40.07268 4.21702 9542 ft 278 kts 276°
2026-05-07 06:33 40.07014 4.19248 10420 ft 278 kts 245°
2026-05-07 06:33 40.05778 4.17209 10762 ft 303 kts 217°
2026-05-07 06:34 40.03848 4.15810 10972 ft 331 kts 206°
2026-05-07 06:34 40.01679 4.14578 11439 ft 346 kts 204°
2026-05-07 06:34 39.99430 4.13396 12241 ft 350 kts 202°
2026-05-07 06:34 39.97181 4.12248 13132 ft 353 kts 202°
2026-05-07 06:35 39.94876 4.11087 14014 ft 356 kts 202°
2026-05-07 06:35 39.92555 4.09927 14868 ft 359 kts 202°
2026-05-07 06:35 39.90195 4.08753 15620 ft 365 kts 202°
2026-05-07 06:35 39.87802 4.07570 16379 ft 371 kts 202°
2026-05-07 06:36 39.85369 4.06371 17150 ft 376 kts 202°
2026-05-07 06:36 39.82905 4.05159 17920 ft 381 kts 202°
2026-05-07 06:36 39.81581 4.04508 18315 ft 384 kts 202°
2026-05-07 06:37 39.79930 4.03692 18744 ft 386 kts 202°
2026-05-07 06:37 39.77437 4.02364 19475 ft 388 kts 205°
2026-05-07 06:37 39.77333 4.02304 19508 ft 388 kts 205°
2026-05-07 06:37 39.76631 4.01895 19722 ft 388 kts 206°
2026-05-07 06:38 39.74242 4.00363 20460 ft 388 kts 210°
2026-05-07 06:38 39.71883 3.98610 21264 ft 387 kts 214°
2026-05-07 06:38 39.69642 3.96717 22000 ft 387 kts 217°
2026-05-07 06:38 39.67456 3.94643 22613 ft 391 kts 220°
2026-05-07 06:39 39.65346 3.92410 22980 ft 392 kts 223°
2026-05-07 06:39 39.63333 3.90033 22976 ft 391 kts 226°
2026-05-07 06:39 39.61454 3.87546 22969 ft 380 kts 229°
2026-05-07 06:39 39.59724 3.84988 22973 ft 375 kts 231°
2026-05-07 06:40 39.58080 3.82373 22981 ft 375 kts 232°
2026-05-07 06:40 39.56441 3.79728 22991 ft 376 kts 232°
2026-05-07 06:40 39.54796 3.77088 22987 ft 379 kts 232°
2026-05-07 06:40 39.53105 3.74416 22990 ft 388 kts 231°
2026-05-07 06:41 39.51375 3.71704 22972 ft 389 kts 231°
2026-05-07 06:41 39.49667 3.69033 22962 ft 383 kts 231°
2026-05-07 06:41 39.47971 3.66378 22974 ft 383 kts 231°
2026-05-07 06:41 39.46292 3.63748 22979 ft 385 kts 231°
2026-05-07 06:42 39.44582 3.61069 22976 ft 386 kts 231°
2026-05-07 06:42 39.42873 3.58393 22973 ft 386 kts 231°
2026-05-07 06:42 39.41163 3.55717 22974 ft 386 kts 231°
2026-05-07 06:42 39.39453 3.53042 22971 ft 386 kts 231°
2026-05-07 06:43 39.37744 3.50371 22972 ft 385 kts 231°
2026-05-07 06:43 39.36037 3.47705 22974 ft 385 kts 231°
2026-05-07 06:43 39.34329 3.45039 22973 ft 384 kts 232°
2026-05-07 06:43 39.32908 3.42148 22965 ft 383 kts 246°
2026-05-07 06:44 39.32047 3.38900 22977 ft 383 kts 252°
2026-05-07 06:44 39.31297 3.35593 22967 ft 383 kts 253°
2026-05-07 06:44 39.30562 3.32287 22970 ft 383 kts 253°
2026-05-07 06:44 39.29833 3.29024 22962 ft 382 kts 252°
2026-05-07 06:45 39.29088 3.25736 22968 ft 381 kts 252°
2026-05-07 06:45 39.28334 3.22450 22970 ft 381 kts 252°
2026-05-07 06:45 39.27577 3.19178 22973 ft 380 kts 252°
2026-05-07 06:45 39.26818 3.15916 22975 ft 380 kts 252°
2026-05-07 06:46 39.26055 3.12645 22968 ft 380 kts 252°
2026-05-07 06:46 39.25291 3.09382 22972 ft 380 kts 252°
2026-05-07 06:46 39.24525 3.06111 22967 ft 380 kts 252°
2026-05-07 06:46 39.23757 3.02837 22978 ft 381 kts 252°
2026-05-07 06:47 39.22990 2.99569 22968 ft 382 kts 252°
2026-05-07 06:47 39.22217 2.96285 22971 ft 384 kts 252°
2026-05-07 06:47 39.21433 2.92955 22978 ft 390 kts 252°
2026-05-07 06:47 39.20656 2.89654 22972 ft 389 kts 252°
2026-05-07 06:48 39.19869 2.86322 22960 ft 388 kts 252°
2026-05-07 06:48 39.19057 2.83010 22960 ft 387 kts 250°
2026-05-07 06:48 39.18114 2.79767 22966 ft 386 kts 248°
2026-05-07 06:48 39.17108 2.76558 22967 ft 386 kts 247°
2026-05-07 06:49 39.16085 2.73356 22965 ft 386 kts 247°
2026-05-07 06:49 39.15064 2.70153 22965 ft 387 kts 247°
2026-05-07 06:49 39.14042 2.66927 22982 ft 387 kts 247°
2026-05-07 06:49 39.13029 2.63705 22972 ft 389 kts 247°
2026-05-07 06:50 39.12017 2.60471 22971 ft 390 kts 247°
2026-05-07 06:50 39.11002 2.57222 22966 ft 391 kts 247°
2026-05-07 06:50 39.09989 2.53975 22964 ft 391 kts 247°
2026-05-07 06:50 39.08989 2.50770 22957 ft 391 kts 247°
2026-05-07 06:51 39.07963 2.47485 22960 ft 390 kts 247°
2026-05-07 06:51 39.06966 2.44295 22962 ft 389 kts 247°
2026-05-07 06:51 39.05956 2.41068 22965 ft 388 kts 247°
2026-05-07 06:51 39.04946 2.37847 22964 ft 388 kts 247°
2026-05-07 06:52 39.03938 2.34633 22963 ft 387 kts 247°
2026-05-07 06:52 39.02928 2.31420 22965 ft 387 kts 247°
2026-05-07 06:52 39.01919 2.28210 22969 ft 387 kts 247°
2026-05-07 06:52 39.00906 2.24993 22963 ft 388 kts 247°
2026-05-07 06:53 38.99899 2.21799 22747 ft 383 kts 247°
2026-05-07 06:53 38.98906 2.18651 22478 ft 377 kts 247°
2026-05-07 06:53 38.97921 2.15535 22219 ft 376 kts 247°
2026-05-07 06:53 38.96935 2.12418 21955 ft 377 kts 247°
2026-05-07 06:54 38.95946 2.09295 21698 ft 377 kts 247°
2026-05-07 06:54 38.94969 2.06212 21440 ft 377 kts 247°
2026-05-07 06:54 38.93979 2.03094 21185 ft 377 kts 247°
2026-05-07 06:54 38.92990 1.99977 20932 ft 377 kts 247°
2026-05-07 06:55 38.91997 1.96854 20668 ft 377 kts 247°
2026-05-07 06:55 38.91011 1.93758 20070 ft 374 kts 247°
2026-05-07 06:55 38.90132 1.90624 19371 ft 373 kts 252°
2026-05-07 06:55 38.89459 1.87415 18715 ft 372 kts 255°
2026-05-07 06:56 38.88844 1.84187 18049 ft 371 kts 256°
2026-05-07 06:56 38.88233 1.80979 17351 ft 369 kts 255°
2026-05-07 06:56 38.87611 1.77798 16702 ft 366 kts 255°
2026-05-07 06:56 38.86979 1.74651 16090 ft 363 kts 255°
2026-05-07 06:57 38.86343 1.71534 15494 ft 360 kts 254°
2026-05-07 06:57 38.85705 1.68440 14896 ft 358 kts 254°
2026-05-07 06:57 38.85069 1.65364 14310 ft 356 kts 254°
2026-05-07 06:57 38.84434 1.62300 13701 ft 355 kts 254°
2026-05-07 06:58 38.83806 1.59278 13049 ft 354 kts 254°
2026-05-07 06:58 38.83138 1.56202 12391 ft 353 kts 253°
2026-05-07 06:58 38.82475 1.53228 11802 ft 350 kts 253°
2026-05-07 06:58 38.81806 1.50233 11224 ft 348 kts 254°
2026-05-07 06:59 38.81148 1.47277 10965 ft 337 kts 254°
2026-05-07 06:59 38.80519 1.44447 10834 ft 323 kts 254°
2026-05-07 06:59 38.79798 1.41770 10679 ft 311 kts 245°
2026-05-07 06:59 38.78814 1.39358 10576 ft 300 kts 240°
2026-05-07 07:00 38.77806 1.37073 10462 ft 289 kts 240°
2026-05-07 07:00 38.76844 1.34852 10345 ft 280 kts 241°
2026-05-07 07:00 38.75931 1.32694 10230 ft 271 kts 242°
2026-05-07 07:00 38.75056 1.30598 10124 ft 263 kts 242°
2026-05-07 07:01 38.74218 1.28582 10014 ft 256 kts 242°
2026-05-07 07:01 38.73386 1.26581 9771 ft 254 kts 242°
2026-05-07 07:01 38.72556 1.24589 9504 ft 253 kts 242°
2026-05-07 07:01 38.71729 1.22607 9240 ft 252 kts 242°
2026-05-07 07:02 38.70906 1.20633 8983 ft 251 kts 242°
2026-05-07 07:02 38.70084 1.18664 8714 ft 250 kts 242°
2026-05-07 07:02 38.69264 1.16701 8446 ft 250 kts 241°
2026-05-07 07:02 38.68447 1.14739 8181 ft 250 kts 243°
2026-05-07 07:03 38.68066 1.12608 7841 ft 249 kts 276°
2026-05-07 07:03 38.68740 1.10593 7306 ft 253 kts 315°
2026-05-07 07:03 38.70226 1.09558 7059 ft 238 kts 350°
2026-05-07 07:03 38.71759 1.09013 6988 ft 220 kts 340°
2026-05-07 07:04 38.73106 1.08250 6881 ft 203 kts 339°
2026-05-07 07:04 38.74422 1.08064 6616 ft 188 kts 20°
2026-05-07 07:04 38.75461 1.09100 5813 ft 200 kts 57°
2026-05-07 07:04 38.76353 1.10550 4953 ft 215 kts 54°
2026-05-07 07:05 38.77096 1.12243 4109 ft 226 kts 66°
2026-05-07 07:05 38.77745 1.14022 3762 ft 214 kts 65°
2026-05-07 07:05 38.78393 1.15676 3469 ft 202 kts 63°
2026-05-07 07:05 38.79023 1.17225 3206 ft 190 kts 63°
2026-05-07 07:06 38.79623 1.18689 2954 ft 181 kts 63°
2026-05-07 07:06 38.80198 1.20090 2726 ft 173 kts 63°
2026-05-07 07:06 38.80738 1.21406 2496 ft 164 kts 62°
2026-05-07 07:06 38.81271 1.22702 2296 ft 161 kts 63°
2026-05-07 07:07 38.81774 1.23928 2071 ft 153 kts 62°
2026-05-07 07:07 38.82259 1.25106 1871 ft 147 kts 63°
2026-05-07 07:07 38.82728 1.26248 1703 ft 142 kts 64°
2026-05-07 07:07 38.83178 1.27342 1500 ft 135 kts 63°
2026-05-07 07:08 38.83599 1.28366 1339 ft 129 kts 62°
2026-05-07 07:08 38.84018 1.29384 1140 ft 129 kts 62°
2026-05-07 07:08 38.84423 1.30370 989 ft 123 kts 63°
2026-05-07 07:08 38.84833 1.31365 816 ft 130 kts 62°
2026-05-07 07:09 38.85252 1.32384 662 ft 131 kts 62°
2026-05-07 07:09 38.85671 1.33401 487 ft 127 kts 62°
2026-05-07 07:09 38.86076 1.34386 324 ft 127 kts 62°
2026-05-07 07:09 38.86488 1.35388 144 ft 125 kts 61°
2026-05-07 07:10 38.86886 1.36358 13 ft 119 kts 62°
2026-05-07 07:10 38.87231 1.37182 12 ft 85 kts 62°
2026-05-07 07:10 38.87439 1.37683 8 ft 42 kts 60°
2026-05-07 07:10 38.87551 1.37830 11 ft 7 kts 34°
2026-05-07 07:11 38.87617 1.37885 9 ft 10 kts 32°
2026-05-07 07:11 38.87680 1.37912 8 ft 10 kts 339°
2026-05-07 07:11 38.87691 1.37836 8 ft 10 kts 240°
2026-05-07 07:11 38.87656 1.37758 8 ft 10 kts 241°
2026-05-07 07:12 38.87624 1.37681 10 ft 10 kts 243°
2026-05-07 07:12 38.87592 1.37606 8 ft 9 kts 242°
2026-05-07 07:12 38.87561 1.37533 8 ft 9 kts 243°
2026-05-07 07:12 38.87596 1.37475 8 ft 9 kts 331°
2026-05-07 07:13 38.87653 1.37436 8 ft 10 kts 332°
2026-05-07 07:13 38.87691 1.37385 7 ft 7 kts 270°
2026-05-07 07:13 38.87661 1.37338 7 ft 7 kts 233°
2026-05-07 07:13 38.87637 1.37283 7 ft 7 kts 242°
2026-05-07 07:14 38.87630 1.37266 7 ft 0 kts 242°
2026-05-07 07:15 38.87626 1.37257 9 ft 3 kts 242°
2026-05-07 07:15 38.87603 1.37203 8 ft 11 kts 240°
2026-05-07 07:16 38.87560 1.37096 7 ft 15 kts 242°
2026-05-07 07:16 38.87514 1.36986 7 ft 9 kts 246°
2026-05-07 07:16 38.87546 1.36930 7 ft 4 kts 332°
2026-05-07 07:16 38.87560 1.36920 7 ft 0 kts 332°